| time (UTC) | temp C | wind direction | speed KPH | gust KPH | rain 1hr cm | rain 24hr cm | rain mn cm | humidity % | barometer mb |
| 20260503025503 | 14 | 303 | 0.0 | 6.4 | 0.00 | 5.74 | 2.59 | 72 | 1016.9 |
| 20260503025005 | 14 | 337 | 0.0 | 6.4 | 0.00 | 5.82 | 2.59 | 72 | 1016.9 |
| 20260503024515 | 14 | 350 | 0.0 | 4.8 | 0.00 | 5.87 | 2.59 | 72 | 1016.8 |
| 20260503024004 | 14 | 303 | 0.0 | 0.0 | 0.00 | 5.87 | 2.59 | 72 | 1016.8 |
| 20260503023504 | 14 | 328 | 0.0 | 0.0 | 0.00 | 5.92 | 2.59 | 72 | 1016.7 |
| 20260503023036 | 14 | 350 | 0.0 | 3.2 | 0.00 | 5.97 | 2.59 | 71 | 1016.6 |
| 20260503022503 | 14 | 329 | 0.0 | 3.2 | 0.00 | 6.22 | 2.59 | 73 | 1016.5 |
| 20260503022003 | 14 | 319 | 0.0 | 0.0 | 0.00 | 6.35 | 2.59 | 72 | 1016.4 |
| 20260503021517 | 15 | 351 | 0.0 | 0.0 | 0.00 | 6.45 | 2.59 | 73 | 1016.3 |
| 20260503021004 | 15 | 351 | 0.0 | 4.8 | 0.00 | 6.50 | 2.59 | 73 | 1016.2 |
| 20260503020504 | 15 | 329 | 0.0 | 4.8 | 0.00 | 6.53 | 2.59 | 1016.2 | |
| 20260503020015 | 15 | 329 | 0.0 | 3.2 | 0.00 | 6.55 | 2.59 | 69 | 1016.1 |
| 20260503015507 | 15 | 321 | 0.0 | 3.2 | 0.00 | 6.55 | 2.59 | 69 | 1016.0 |
| 20260503015009 | 16 | 317 | 0.0 | 0.0 | 0.00 | 6.58 | 2.59 | 69 | 1015.9 |
| 20260503014517 | 16 | 345 | 0.0 | 0.0 | 0.00 | 6.60 | 2.59 | 70 | 1015.8 |
| 20260503014005 | 16 | 335 | 0.0 | 0.0 | 0.00 | 6.63 | 2.59 | 67 | 1015.8 |
| 20260503013503 | 16 | 333 | 0.0 | 4.8 | 0.00 | 6.63 | 2.59 | 66 | 1015.7 |
| 20260503013018 | 16 | 336 | 0.0 | 9.7 | 0.00 | 6.63 | 2.59 | 66 | 1015.6 |
| 20260503012506 | 16 | 352 | 1.6 | 9.7 | 0.00 | 6.63 | 2.59 | 67 | 1015.6 |
| 20260503012006 | 16 | 320 | 3.2 | 8.0 | 0.00 | 6.63 | 2.59 | 68 | 1015.4 |
| 20260503011519 | 16 | 360 | 4.8 | 8.0 | 0.00 | 6.65 | 2.59 | 69 | 1015.3 |
| 20260503011007 | 16 | 325 | 1.6 | 4.8 | 0.00 | 6.65 | 2.59 | 73 | 1015.3 |
| 20260503010514 | 16 | 340 | 0.0 | 0.0 | 0.00 | 6.65 | 2.59 | 74 | 1015.2 |
| 20260503010024 | 17 | 334 | 0.0 | 0.0 | 0.00 | 6.68 | 2.59 | 74 | 1015.0 |
| 20260503005503 | 17 | 321 | 0.0 | 0.0 | 0.00 | 6.71 | 2.59 | 72 | 1014.8 |
| 20260503005007 | 17 | 348 | 0.0 | 0.0 | 0.00 | 6.73 | 2.59 | 70 | 1014.7 |
| 20260503004542 | 17 | 323 | 0.0 | 0.0 | 0.00 | 6.78 | 2.59 | 69 | 1014.6 |
| 20260503004007 | 18 | 331 | 0.0 | 4.8 | 0.00 | 6.83 | 2.59 | 68 | 1014.3 |
| 20260503003505 | 18 | 9 | 0.0 | 4.8 | 0.00 | 6.86 | 2.59 | 66 | 1014.1 |
| 20260503003018 | 18 | 333 | 0.0 | 6.4 | 0.00 | 6.91 | 2.59 | 65 | 1014.1 |
| 20260503002509 | 18 | 337 | 1.6 | 8.0 | 0.00 | 6.91 | 2.59 | 64 | 1013.9 |
| 20260503002006 | 18 | 40 | 3.2 | 8.0 | 0.00 | 6.93 | 2.59 | 63 | 1013.8 |
| 20260503001519 | 19 | 331 | 3.2 | 6.4 | 0.00 | 6.93 | 2.59 | 63 | 1013.7 |
| 20260503001006 | 19 | 337 | 1.6 | 6.4 | 0.00 | 6.93 | 2.59 | 62 | 1013.6 |
| 20260503000504 | 19 | 320 | 1.6 | 6.4 | 0.00 | 6.93 | 2.59 | 61 | 1013.5 |
| 20260503000024 | 20 | 19 | 0.0 | 11.3 | 0.00 | 6.93 | 2.59 | 61 | 1013.4 |
| 20260502235503 | 20 | 339 | 4.8 | 11.3 | 0.00 | 6.93 | 2.59 | 60 | 1013.4 |
| 20260502235004 | 20 | 329 | 3.2 | 11.3 | 0.00 | 6.93 | 2.59 | 60 | 1013.2 |
| 20260502234514 | 20 | 76 | 4.8 | 6.4 | 0.00 | 6.93 | 2.59 | 59 | 1013.0 |
| 20260502234005 | 20 | 352 | 3.2 | 16.1 | 0.00 | 6.93 | 2.59 | 58 | 1012.9 |
| 20260502233505 | 21 | 340 | 1.6 | 16.1 | 0.00 | 6.93 | 2.59 | 57 | 1012.7 |
| 20260502233020 | 21 | 315 | 6.4 | 16.1 | 0.00 | 6.93 | 2.59 | 56 | 1012.6 |
| 20260502232507 | 21 | 330 | 4.8 | 16.1 | 0.00 | 6.93 | 2.59 | 56 | 1012.5 |
| 20260502232006 | 21 | 348 | 6.4 | 16.1 | 0.00 | 6.93 | 2.59 | 56 | 1012.4 |
| 20260502231521 | 21 | 326 | 6.4 | 16.1 | 0.00 | 6.93 | 2.59 | 56 | 1012.4 |
| 20260502231007 | 21 | 349 | 6.4 | 14.5 | 0.00 | 6.93 | 2.59 | 55 | 1012.4 |
| 20260502230507 | 21 | 360 | 3.2 | 14.5 | 0.00 | 6.93 | 2.59 | 55 | 1012.5 |
| 20260502230020 | 21 | 292 | 4.8 | 20.9 | 0.00 | 6.93 | 2.59 | 55 | 1012.5 |
| 20260502225506 | 21 | 321 | 8.0 | 20.9 | 0.00 | 6.93 | 2.59 | 54 | 1012.3 |
| 20260502225007 | 22 | 301 | 8.0 | 19.3 | 0.00 | 6.93 | 2.59 | 56 | 1012.4 |
| 20260502224522 | 22 | 297 | 4.8 | 19.3 | 0.00 | 6.93 | 2.59 | 56 | 1012.4 |
| 20260502224005 | 22 | 322 | 9.7 | 19.3 | 0.00 | 6.93 | 2.59 | 55 | 1012.4 |
| 20260502223504 | 22 | 342 | 6.4 | 17.7 | 0.00 | 6.96 | 2.59 | 56 | 1012.3 |
| 20260502223020 | 22 | 304 | 4.8 | 19.3 | 0.00 | 6.96 | 2.59 | 57 | 1012.3 |
| 20260502222505 | 22 | 10 | 4.8 | 20.9 | 0.00 | 6.96 | 2.59 | 56 | 1012.2 |
| 20260502222007 | 21 | 342 | 9.7 | 20.9 | 0.00 | 6.96 | 2.59 | 55 | 1012.3 |
| 20260502221519 | 21 | 296 | 14.5 | 22.5 | 0.00 | 6.96 | 2.59 | 56 | 1012.2 |
| 20260502221007 | 21 | 349 | 9.7 | 22.5 | 0.00 | 6.96 | 2.59 | 58 | 1012.2 |
| 20260502220508 | 21 | 318 | 6.4 | 17.7 | 0.00 | 6.96 | 2.59 | 59 | 1012.2 |
| 20260502220022 | 21 | 22 | 6.4 | 17.7 | 0.00 | 6.96 | 2.59 | 59 | 1012.2 |
| 20260502215508 | 21 | 336 | 8.0 | 20.9 | 0.00 | 6.96 | 2.59 | 57 | 1012.2 |
| 20260502215007 | 21 | 342 | 6.4 | 20.9 | 0.00 | 6.96 | 2.59 | 57 | 1012.1 |
| 20260502214522 | 21 | 339 | 6.4 | 17.7 | 0.00 | 6.96 | 2.59 | 57 | 1012.1 |
| 20260502214005 | 21 | 340 | 6.4 | 22.5 | 0.00 | 6.96 | 2.59 | 58 | 1012.0 |
| 20260502213507 | 21 | 327 | 8.0 | 22.5 | 0.00 | 6.96 | 2.59 | 58 | 1012.0 |
| 20260502213025 | 21 | 341 | 8.0 | 22.5 | 0.00 | 6.96 | 2.59 | 58 | 1012.0 |
| 20260502212507 | 21 | 352 | 11.3 | 22.5 | 0.00 | 6.96 | 2.59 | 56 | 1012.0 |
| 20260502212007 | 22 | 360 | 11.3 | 22.5 | 0.00 | 6.96 | 2.59 | 57 | 1011.9 |
| 20260502211522 | 22 | 28 | 12.9 | 22.5 | 0.00 | 6.96 | 2.59 | 57 | 1011.8 |
| 20260502211004 | 22 | 344 | 9.7 | 20.9 | 0.00 | 6.96 | 2.59 | 57 | 1011.8 |
| 20260502210503 | 22 | 350 | 8.0 | 20.9 | 0.00 | 6.96 | 2.59 | 58 | 1011.8 |
| 20260502210004 | 22 | 317 | 3.2 | 20.9 | 0.00 | 6.96 | 2.59 | 59 | 1011.8 |
| 20260502205503 | 22 | 339 | 8.0 | 27.4 | 0.00 | 6.96 | 2.59 | 59 | 1011.9 |
| 20260502205004 | 22 | 324 | 9.7 | 27.4 | 0.00 | 6.96 | 2.59 | 58 | 1011.9 |
| 20260502204520 | 21 | 295 | 11.3 | 27.4 | 0.00 | 6.96 | 2.59 | 59 | 1011.9 |
| 20260502204004 | 21 | 11 | 8.0 | 22.5 | 0.00 | 6.96 | 2.59 | 60 | 1012.1 |
| 20260502203504 | 21 | 335 | 11.3 | 22.5 | 0.00 | 6.96 | 2.59 | 61 | 1012.1 |
| 20260502203018 | 21 | 345 | 8.0 | 25.7 | 0.00 | 6.96 | 2.59 | 60 | 1012.1 |
| 20260502202503 | 22 | 5 | 8.0 | 25.7 | 0.00 | 6.96 | 2.59 | 61 | 1012.1 |
| 20260502202006 | 21 | 349 | 4.8 | 19.3 | 0.00 | 6.96 | 2.59 | 63 | 1012.1 |
| 20260502201519 | 21 | 323 | 9.7 | 19.3 | 0.00 | 6.96 | 2.59 | 64 | 1012.3 |
| 20260502201009 | 21 | 52 | 8.0 | 17.7 | 0.00 | 6.96 | 2.59 | 65 | 1012.5 |
| 20260502200508 | 20 | 325 | 4.8 | 17.7 | 0.00 | 6.99 | 2.59 | 64 | 1012.6 |
| 20260502200004 | 20 | 335 | 4.8 | 17.7 | 0.00 | 6.99 | 2.59 | 64 | 1012.7 |
| 20260502195505 | 20 | 360 | 9.7 | 20.9 | 0.00 | 6.99 | 2.59 | 65 | 1012.9 |
| 20260502195003 | 20 | 22 | 8.0 | 20.9 | 0.00 | 7.01 | 2.59 | 63 | 1012.8 |
| 20260502194508 | 20 | 337 | 9.7 | 22.5 | 0.00 | 7.04 | 2.59 | 64 | 1012.8 |
| 20260502194004 | 20 | 303 | 9.7 | 22.5 | 0.00 | 7.06 | 2.59 | 66 | 1012.9 |
| 20260502193503 | 20 | 47 | 12.9 | 22.5 | 0.00 | 7.09 | 2.59 | 66 | 1013.0 |
| 20260502193014 | 20 | 352 | 9.7 | 22.5 | 0.00 | 7.09 | 2.59 | 65 | 1013.1 |
| 20260502192506 | 20 | 342 | 8.0 | 22.5 | 0.00 | 7.09 | 2.59 | 66 | 1013.0 |
| 20260502192010 | 20 | 22 | 9.7 | 22.5 | 0.00 | 7.09 | 2.59 | 65 | 1013.1 |
| 20260502191521 | 20 | 352 | 14.5 | 22.5 | 0.00 | 7.09 | 2.59 | 67 | 1013.1 |
| 20260502191008 | 20 | 16 | 4.8 | 20.9 | 0.00 | 7.09 | 2.59 | 70 | 1013.0 |
| 20260502190509 | 19 | 25 | 9.7 | 19.3 | 0.00 | 7.09 | 2.59 | 71 | 1013.2 |
| 20260502190025 | 19 | 14 | 8.0 | 14.5 | 0.00 | 7.09 | 2.59 | 72 | 1013.2 |
| 20260502185507 | 18 | 32 | 6.4 | 19.3 | 0.00 | 7.09 | 2.59 | 74 | 1013.3 |
| 20260502185003 | 18 | 294 | 11.3 | 19.3 | 0.00 | 7.09 | 2.59 | 73 | 1013.3 |
| 20260502184508 | 18 | 332 | 12.9 | 19.3 | 0.00 | 7.09 | 2.59 | 74 | 1013.2 |
| 20260502184004 | 18 | 352 | 9.7 | 17.7 | 0.00 | 7.09 | 2.59 | 74 | 1013.4 |
| 20260502183504 | 18 | 352 | 9.7 | 17.7 | 0.00 | 7.09 | 2.59 | 74 | 1013.3 |
| 20260502183013 | 18 | 352 | 11.3 | 22.5 | 0.00 | 7.11 | 2.59 | 74 | 1013.3 |
| 20260502182504 | 18 | 329 | 9.7 | 22.5 | 0.00 | 7.11 | 2.59 | 75 | 1013.2 |
| 20260502182004 | 18 | 352 | 11.3 | 22.5 | 0.00 | 7.11 | 2.59 | 75 | 1013.2 |
| 20260502181518 | 18 | 26 | 11.3 | 22.5 | 0.00 | 7.11 | 2.59 | 74 | 1013.0 |
| 20260502181006 | 18 | 349 | 12.9 | 22.5 | 0.00 | 7.11 | 2.59 | 76 | 1013.0 |
| 20260502180506 | 18 | 346 | 9.7 | 19.3 | 0.00 | 7.11 | 2.59 | 76 | 1013.1 |
| 20260502170511 | 16 | 33 | 8.0 | 17.7 | 0.00 | 7.11 | 2.59 | 83 | 1013.6 |
| 20260502164011 | 15 | 48 | 11.3 | 17.7 | 0.00 | 7.11 | 2.59 | 85 | 1013.6 |
| 20260502163503 | 15 | 352 | 9.7 | 17.7 | 0.00 | 7.11 | 2.59 | 85 | 1013.6 |
| 20260502163013 | 15 | 331 | 8.0 | 25.7 | 0.00 | 7.11 | 2.59 | 87 | 1013.4 |
| 20260502162509 | 15 | 16 | 12.9 | 25.7 | 0.00 | 7.11 | 2.59 | 86 | 1013.4 |
| 20260502162001 | 15 | 343 | 9.7 | 17.7 | 0.00 | 7.11 | 2.59 | 87 | 1013.8 |
| 20260502161515 | 15 | 38 | 6.4 | 17.7 | 0.00 | 7.11 | 2.59 | 87 | 1013.8 |
| 20260502161005 | 15 | 348 | 9.7 | 17.7 | 0.00 | 7.11 | 2.59 | 88 | 1013.7 |
| 20260502160507 | 14 | 5 | 4.8 | 16.1 | 0.00 | 7.11 | 2.59 | 89 | 1013.6 |
| 20260502152004 | 13 | 47 | 1.6 | 17.7 | 0.00 | 7.11 | 2.59 | 92 | 1013.5 |
| 20260502151510 | 13 | 325 | 8.0 | 16.1 | 0.00 | 7.11 | 2.59 | 92 | 1013.5 |
| 20260502151004 | 13 | 34 | 4.8 | 14.5 | 0.00 | 7.11 | 2.59 | 93 | 1013.4 |
| 20260502150504 | 13 | 318 | 8.0 | 16.1 | 0.00 | 7.11 | 2.59 | 93 | 1013.4 |
| 20260502130504 | 12 | 69 | 6.4 | 14.5 | 0.05 | 7.11 | 2.59 | 95 | 1012.0 |
| 20260502123509 | 12 | 30 | 6.4 | 16.1 | 0.08 | 7.11 | 2.59 | 95 | 1011.7 |
| 20260502123028 | 12 | 11 | 8.0 | 16.1 | 0.10 | 7.09 | 2.57 | 95 | 1012.1 |
| 20260502122508 | 12 | 5 | 4.8 | 17.7 | 0.15 | 7.09 | 2.57 | 95 | 1012.3 |
| 20260502122009 | 12 | 56 | 8.0 | 22.5 | 0.25 | 7.06 | 2.54 | 95 | 1011.9 |
| 20260502121506 | 12 | 360 | 11.3 | 22.5 | 0.28 | 7.06 | 2.54 | 95 | 1011.6 |
| 20260502121004 | 12 | 36 | 9.7 | 17.7 | 0.28 | 7.06 | 2.54 | 95 | 1011.3 |
| 20260502120503 | 12 | 15 | 4.8 | 17.7 | 0.28 | 7.06 | 2.54 | 95 | 1011.4 |
| 20260502115504 | 12 | 61 | 8.0 | 14.5 | 0.30 | 7.06 | 2.54 | 95 | 1011.7 |
| 20260502115008 | 12 | 19 | 4.8 | 14.5 | 0.30 | 7.06 | 2.54 | 95 | 1011.8 |
| 20260502114521 | 12 | 9 | 4.8 | 14.5 | 0.33 | 7.06 | 2.54 | 95 | 1012.0 |
| 20260502114007 | 12 | 81 | 6.4 | 14.5 | 0.36 | 7.04 | 2.51 | 95 | 1012.2 |
| 20260502113508 | 12 | 20 | 4.8 | 16.1 | 0.38 | 7.04 | 2.51 | 95 | 1012.3 |
| 20260502113024 | 12 | 298 | 6.4 | 14.5 | 0.36 | 6.99 | 2.46 | 95 | 1012.3 |
| 20260502112507 | 12 | 28 | 3.2 | 16.1 | 0.30 | 6.93 | 2.41 | 95 | 1012.9 |
| 20260502112006 | 12 | 9 | 6.4 | 16.1 | 0.20 | 6.81 | 2.29 | 96 | 1012.8 |
| 20260502111532 | 12 | 286 | 6.4 | 12.9 | 0.18 | 6.78 | 2.26 | 96 | 1012.4 |
| 20260502111004 | 12 | 340 | 3.2 | 9.7 | 0.18 | 6.78 | 2.26 | 96 | 1011.3 |
| 20260502110505 | 12 | 47 | 1.6 | 16.1 | 0.20 | 6.78 | 2.26 | 96 | 1011.0 |
| 20260502110012 | 12 | 271 | 4.8 | 16.1 | 0.23 | 6.76 | 2.24 | 96 | 1010.5 |
| 20260502105505 | 12 | 30 | 6.4 | 12.9 | 0.38 | 6.76 | 2.24 | 96 | 1010.7 |
| 20260502105004 | 12 | 46 | 4.8 | 16.1 | 0.48 | 6.76 | 2.24 | 96 | 1011.0 |
| 20260502104519 | 12 | 29 | 6.4 | 16.1 | 0.64 | 6.73 | 2.21 | 95 | 1010.9 |
| 20260502104004 | 12 | 34 | 6.4 | 19.3 | 0.69 | 6.68 | 2.16 | 95 | 1010.9 |
| 20260502103504 | 12 | 45 | 4.8 | 19.3 | 0.74 | 6.65 | 2.13 | 95 | 1011.6 |
| 20260502103021 | 13 | 34 | 6.4 | 17.7 | 0.74 | 6.63 | 2.11 | 95 | 1010.8 |
| 20260502102508 | 13 | 10 | 6.4 | 17.7 | 0.74 | 6.63 | 2.11 | 96 | 1011.4 |
| 20260502102008 | 13 | 26 | 11.3 | 17.7 | 0.71 | 6.60 | 2.08 | 96 | 1011.6 |
| 20260502101525 | 13 | 298 | 8.0 | 16.1 | 0.74 | 6.60 | 2.08 | 96 | 1011.6 |
| 20260502101012 | 13 | 315 | 3.2 | 14.5 | 0.74 | 6.60 | 2.08 | 96 | 1010.8 |
| 20260502100507 | 13 | 331 | 6.4 | 16.1 | 0.71 | 6.58 | 2.06 | 96 | 1010.5 |
| 20260502091015 | 13 | 60 | 4.8 | 9.7 | 0.43 | 5.87 | 1.32 | 96 | 1009.6 |
| 20260502090508 | 13 | 87 | 4.8 | 12.9 | 0.56 | 5.87 | 1.32 | 96 | 1009.6 |
| 20260502071520 | 13 | 16 | 3.2 | 12.9 | 0.05 | 4.78 | 0.25 | 96 | 1011.3 |
| 20260502071004 | 13 | 329 | 6.4 | 14.5 | 0.00 | 4.72 | 0.20 | 96 | 1011.4 |
| 20260502070509 | 13 | 11 | 6.4 | 14.5 | 0.00 | 4.72 | 0.20 | 96 | 1011.0 |
| 20260502070024 | 13 | 64 | 8.0 | 17.7 | 0.00 | 4.72 | 0.20 | 96 | 1010.9 |
| 20260502065508 | 13 | 55 | 9.7 | 17.7 | 0.00 | 4.72 | 0.20 | 96 | 1011.0 |
| 20260502065013 | 13 | 88 | 8.0 | 16.1 | 0.00 | 4.72 | 0.20 | 96 | 1011.1 |
| 20260502064531 | 13 | 94 | 8.0 | 16.1 | 0.00 | 4.72 | 0.20 | 96 | 1011.3 |
| 20260502064016 | 13 | 46 | 6.4 | 16.1 | 0.00 | 4.72 | 0.20 | 96 | 1011.3 |
| 20260502063509 | 13 | 20 | 8.0 | 14.5 | 0.05 | 4.72 | 0.20 | 96 | 1011.3 |
| 20260502063018 | 13 | 72 | 4.8 | 12.9 | 0.08 | 4.72 | 0.20 | 96 | 1011.4 |
| 20260502062507 | 13 | 71 | 4.8 | 16.1 | 0.15 | 4.72 | 0.20 | 96 | 1011.4 |
| 20260502062005 | 13 | 96 | 6.4 | 16.1 | 0.15 | 4.72 | 0.20 | 96 | 1011.5 |
| 20260502061517 | 13 | 80 | 4.8 | 14.5 | 0.15 | 4.72 | 0.20 | 96 | 1011.4 |
| 20260502061007 | 13 | 60 | 6.4 | 14.5 | 0.18 | 4.72 | 0.20 | 96 | 1011.5 |
| 20260502060507 | 13 | 74 | 4.8 | 12.9 | 0.18 | 4.72 | 0.20 | 96 | 1011.7 |
| 20260502060024 | 13 | 34 | 3.2 | 11.3 | 0.20 | 4.72 | 0.20 | 96 | 1012.0 |
| 20260502055508 | 13 | 26 | 3.2 | 14.5 | 0.23 | 4.72 | 0.20 | 96 | 1012.0 |
| 20260502055008 | 13 | 34 | 6.4 | 17.7 | 0.25 | 4.72 | 0.20 | 96 | 1011.9 |
| 20260502054526 | 13 | 46 | 8.0 | 17.7 | 0.28 | 4.72 | 0.20 | 96 | 1011.5 |
| 20260502054006 | 13 | 18 | 8.0 | 19.3 | 0.36 | 4.72 | 0.20 | 96 | 1011.7 |
| 20260502053509 | 13 | 40 | 8.0 | 19.3 | 0.36 | 4.67 | 0.15 | 96 | 1011.6 |
| 20260502053026 | 13 | 93 | 14.5 | 19.3 | 0.41 | 4.65 | 0.13 | 96 | 1011.9 |
| 20260502052510 | 13 | 61 | 3.2 | 8.0 | 0.38 | 4.57 | 0.05 | 96 | 1013.1 |
| 20260502052006 | 13 | 116 | 1.6 | 8.0 | 0.46 | 4.57 | 0.05 | 96 | 1013.3 |
| 20260502051516 | 13 | 337 | 4.8 | 8.0 | 0.53 | 4.57 | 0.05 | 96 | 1013.4 |
| 20260502051006 | 13 | 309 | 0.0 | 4.8 | 0.64 | 4.55 | 0.03 | 96 | 1013.5 |
| 20260502050508 | 13 | 11 | 1.6 | 4.8 | 0.79 | 4.55 | 0.03 | 96 | 1013.3 |
| 20260502050026 | 13 | 24 | 0.0 | 4.8 | 1.04 | 4.52 | 0.00 | 96 | 1013.3 |
| 20260502045506 | 13 | 54 | 1.6 | 4.8 | 1.22 | 4.50 | 4.50 | 96 | 1013.1 |
| 20260502045013 | 13 | 46 | 1.6 | 4.8 | 1.55 | 4.47 | 4.47 | 96 | 1013.0 |
| 20260502044525 | 13 | 76 | 3.2 | 4.8 | 1.85 | 4.45 | 4.45 | 96 | 1013.3 |
| 20260502044011 | 13 | 5 | 1.6 | 3.2 | 1.96 | 4.37 | 4.37 | 96 | 1013.6 |
| 20260502043511 | 13 | 32 | 0.0 | 8.0 | 2.01 | 4.32 | 4.32 | 96 | 1013.9 |
| 20260502043026 | 13 | 40 | 1.6 | 9.7 | 2.08 | 4.24 | 4.24 | 96 | 1013.8 |
| 20260502042511 | 13 | 46 | 3.2 | 8.0 | 2.11 | 4.19 | 4.19 | 96 | 1013.6 |
| 20260502042011 | 13 | 292 | 3.2 | 11.3 | 2.13 | 4.11 | 4.11 | 96 | 1013.9 |
| 20260502041529 | 13 | 19 | 1.6 | 16.1 | 2.24 | 4.04 | 4.04 | 96 | 1013.8 |
| 20260502041009 | 13 | 35 | 3.2 | 22.5 | 2.24 | 3.91 | 3.91 | 96 | 1013.5 |
| 20260502040503 | 13 | 322 | 9.7 | 22.5 | 2.16 | 3.76 | 3.76 | 96 | 1013.4 |
| 20260502040019 | 13 | 295 | 6.4 | 16.1 | 2.06 | 3.48 | 3.48 | 96 | 1014.2 |
| 20260502035506 | 13 | 276 | 8.0 | 16.1 | 1.91 | 3.28 | 3.28 | 96 | 1013.4 |
| 20260502035006 | 13 | 315 | 6.4 | 16.1 | 1.63 | 2.92 | 2.92 | 96 | 1013.7 |
| 20260502034525 | 13 | 286 | 4.8 | 12.9 | 1.32 | 2.59 | 2.59 | 96 | 1013.4 |
| 20260502034007 | 13 | 9 | 4.8 | 19.3 | 1.17 | 2.41 | 2.41 | 95 | 1012.5 |
| 20260502033508 | 13 | 36 | 11.3 | 19.3 | 1.12 | 2.31 | 2.31 | 95 | 1012.1 |
| 20260502033012 | 13 | 74 | 6.4 | 22.5 | 1.04 | 2.16 | 2.16 | 95 | 1012.1 |
| 20260502032504 | 13 | 53 | 9.7 | 22.5 | 1.19 | 2.08 | 2.08 | 95 | 1011.7 |
| 20260502032004 | 13 | 80 | 8.0 | 14.5 | 1.22 | 1.98 | 1.98 | 95 | 1012.1 |
| 20260502031511 | 13 | 43 | 4.8 | 16.1 | 1.14 | 1.80 | 1.80 | 95 | 1012.4 |
| 20260502031004 | 13 | 17 | 8.0 | 16.1 | 1.07 | 1.68 | 1.68 | 95 | 1012.0 |
| 20260502030505 | 13 | 30 | 9.7 | 16.1 | 1.02 | 1.60 | 1.60 | 95 | 1011.8 |
| 20260502030022 | 13 | 51 | 3.2 | 8.0 | 0.86 | 1.42 | 1.42 | 95 | 1012.6 |